Year,Month,Day,Hour,Minute,Value (Times are PST for temperature in C)
2013,08,08,00,00,20.10
2013,08,08,00,01,20.10
2013,08,08,00,02,20.10
2013,08,08,00,03,20.10
2013,08,08,00,04,20.00
2013,08,08,00,05,20.00
2013,08,08,00,06,20.00
2013,08,08,00,07,19.90
2013,08,08,00,08,19.90
2013,08,08,00,09,19.90
2013,08,08,00,10,19.80
2013,08,08,00,11,19.80
2013,08,08,00,12,19.80
2013,08,08,00,13,19.80
2013,08,08,00,14,19.80
2013,08,08,00,15,19.70
2013,08,08,00,16,19.70
2013,08,08,00,17,19.70
2013,08,08,00,18,19.70
2013,08,08,00,19,19.70
2013,08,08,00,20,19.60
2013,08,08,00,21,19.60
2013,08,08,00,22,19.60
2013,08,08,00,23,19.60
2013,08,08,00,24,19.60
2013,08,08,00,25,19.60
2013,08,08,00,26,19.60
2013,08,08,00,27,19.50
2013,08,08,00,28,19.50
2013,08,08,00,29,19.50
2013,08,08,00,30,19.40
2013,08,08,00,31,19.40
2013,08,08,00,32,19.40
2013,08,08,00,33,19.40
2013,08,08,00,34,19.40
2013,08,08,00,35,19.30
2013,08,08,00,36,19.30
2013,08,08,00,37,19.30
2013,08,08,00,38,19.30
2013,08,08,00,39,19.30
2013,08,08,00,40,19.20
2013,08,08,00,41,19.20
2013,08,08,00,42,19.10
2013,08,08,00,43,19.10
2013,08,08,00,44,19.10
2013,08,08,00,45,19.00
2013,08,08,00,46,19.00
2013,08,08,00,47,19.00
2013,08,08,00,48,18.90
2013,08,08,00,49,18.90
2013,08,08,00,50,18.90
2013,08,08,00,51,18.90
2013,08,08,00,52,18.90
2013,08,08,00,53,18.80
2013,08,08,00,54,18.80
2013,08,08,00,55,18.90
2013,08,08,00,56,18.90
2013,08,08,00,57,18.90
2013,08,08,00,58,19.00
2013,08,08,00,59,19.10
2013,08,08,01,00,19.10
2013,08,08,01,01,19.20
2013,08,08,01,02,19.30
2013,08,08,01,03,19.40
2013,08,08,01,04,19.50
2013,08,08,01,05,19.60
2013,08,08,01,06,19.60
2013,08,08,01,07,19.70
2013,08,08,01,08,19.80
2013,08,08,01,09,19.80
2013,08,08,01,10,19.90
2013,08,08,01,11,19.90
2013,08,08,01,12,20.00
2013,08,08,01,13,20.00
2013,08,08,01,14,20.10
2013,08,08,01,15,20.10
2013,08,08,01,16,20.10
2013,08,08,01,17,20.20
2013,08,08,01,18,20.20
2013,08,08,01,19,20.20
2013,08,08,01,20,20.20
2013,08,08,01,21,20.20
2013,08,08,01,22,20.20
2013,08,08,01,23,20.20
2013,08,08,01,24,20.30
2013,08,08,01,25,20.30
2013,08,08,01,26,20.20
2013,08,08,01,27,20.20
2013,08,08,01,28,20.20
2013,08,08,01,29,20.20
2013,08,08,01,30,20.20
2013,08,08,01,31,20.20
2013,08,08,01,32,20.10
2013,08,08,01,33,20.10
2013,08,08,01,34,20.10
2013,08,08,01,35,20.10
2013,08,08,01,36,20.00
2013,08,08,01,37,20.00
2013,08,08,01,38,19.90
2013,08,08,01,39,19.90
2013,08,08,01,40,19.90
2013,08,08,01,41,19.80
2013,08,08,01,42,19.80
2013,08,08,01,43,19.80
2013,08,08,01,44,19.70
2013,08,08,01,45,19.70
2013,08,08,01,46,19.60
2013,08,08,01,47,19.60
2013,08,08,01,48,19.60
2013,08,08,01,49,19.50
2013,08,08,01,50,19.50
2013,08,08,01,51,19.50
2013,08,08,01,52,19.40
2013,08,08,01,53,19.40
2013,08,08,01,54,19.40
2013,08,08,01,55,19.30
2013,08,08,01,56,19.30
2013,08,08,01,57,19.30
2013,08,08,01,58,19.20
2013,08,08,01,59,19.20
2013,08,08,02,00,19.20
2013,08,08,02,01,19.20
2013,08,08,02,02,19.10
2013,08,08,02,03,19.10
2013,08,08,02,04,19.10
2013,08,08,02,05,19.10
2013,08,08,02,06,19.10
2013,08,08,02,07,19.10
2013,08,08,02,08,19.10
2013,08,08,02,09,19.10
2013,08,08,02,10,19.10
2013,08,08,02,11,19.10
2013,08,08,02,12,19.10
2013,08,08,02,13,19.00
2013,08,08,02,14,19.00
2013,08,08,02,15,19.00
2013,08,08,02,16,19.00
2013,08,08,02,17,19.00
2013,08,08,02,18,19.00
2013,08,08,02,19,19.00
2013,08,08,02,20,19.00
2013,08,08,02,21,19.00
2013,08,08,02,22,19.00
2013,08,08,02,23,19.00
2013,08,08,02,24,19.00
2013,08,08,02,25,19.00
2013,08,08,02,26,19.00
2013,08,08,02,27,19.00
2013,08,08,02,28,18.90
2013,08,08,02,29,18.90
2013,08,08,02,30,18.90
2013,08,08,02,31,18.90
2013,08,08,02,32,18.90
2013,08,08,02,33,18.90
2013,08,08,02,34,18.90
2013,08,08,02,35,18.90
2013,08,08,02,36,18.80
2013,08,08,02,37,18.80
2013,08,08,02,38,18.80
2013,08,08,02,39,18.80
2013,08,08,02,40,18.80
2013,08,08,02,41,18.70
2013,08,08,02,42,18.70
2013,08,08,02,43,18.70
2013,08,08,02,44,18.70
2013,08,08,02,45,18.70
2013,08,08,02,46,18.70
2013,08,08,02,47,18.80
2013,08,08,02,48,18.80
2013,08,08,02,49,18.80
2013,08,08,02,50,18.80
2013,08,08,02,51,18.80
2013,08,08,02,52,18.80
2013,08,08,02,53,18.80
2013,08,08,02,54,18.80
2013,08,08,02,55,18.80
2013,08,08,02,56,18.80
2013,08,08,02,57,18.70
2013,08,08,02,58,18.70
2013,08,08,02,59,18.70
2013,08,08,03,00,18.70
2013,08,08,03,01,18.60
2013,08,08,03,02,18.60
2013,08,08,03,03,18.60
2013,08,08,03,04,18.60
2013,08,08,03,05,18.60
2013,08,08,03,06,18.60
2013,08,08,03,07,18.70
2013,08,08,03,08,18.70
2013,08,08,03,09,18.70
2013,08,08,03,10,18.70
2013,08,08,03,11,18.70
2013,08,08,03,12,18.60
2013,08,08,03,13,18.60
2013,08,08,03,14,18.60
2013,08,08,03,15,18.60
2013,08,08,03,16,18.50
2013,08,08,03,17,18.50
2013,08,08,03,18,18.50
2013,08,08,03,19,18.50
2013,08,08,03,20,18.50
2013,08,08,03,21,18.60
2013,08,08,03,22,18.60
2013,08,08,03,23,18.60
2013,08,08,03,24,18.60
2013,08,08,03,25,18.60
2013,08,08,03,26,18.60
2013,08,08,03,27,18.60
2013,08,08,03,28,18.60
2013,08,08,03,29,18.60
2013,08,08,03,30,18.60
2013,08,08,03,31,18.50
2013,08,08,03,32,18.50
2013,08,08,03,33,18.50
2013,08,08,03,34,18.50
2013,08,08,03,35,18.50
2013,08,08,03,36,18.40
2013,08,08,03,37,18.40
2013,08,08,03,38,18.40
2013,08,08,03,39,18.40
2013,08,08,03,40,18.40
2013,08,08,03,41,18.40
2013,08,08,03,42,18.40
2013,08,08,03,43,18.40
2013,08,08,03,44,18.40
2013,08,08,03,45,18.40
2013,08,08,03,46,18.40
2013,08,08,03,47,18.40
2013,08,08,03,48,18.30
2013,08,08,03,49,18.30
2013,08,08,03,50,18.30
2013,08,08,03,51,18.30
2013,08,08,03,52,18.30
2013,08,08,03,53,18.30
2013,08,08,03,54,18.30
2013,08,08,03,55,18.30
2013,08,08,03,56,18.30
2013,08,08,03,57,18.30
2013,08,08,03,58,18.30
2013,08,08,03,59,18.30
2013,08,08,04,00,18.20
2013,08,08,04,01,18.20
2013,08,08,04,02,18.30
2013,08,08,04,03,18.30
2013,08,08,04,04,18.30
2013,08,08,04,05,18.30
2013,08,08,04,06,18.30
2013,08,08,04,07,18.30
2013,08,08,04,08,18.30
2013,08,08,04,09,18.30
2013,08,08,04,10,18.30
2013,08,08,04,11,18.30
2013,08,08,04,12,18.30
2013,08,08,04,13,18.30
2013,08,08,04,14,18.30
2013,08,08,04,15,18.30
2013,08,08,04,16,18.30
2013,08,08,04,17,18.30
2013,08,08,04,18,18.30
2013,08,08,04,19,18.30
2013,08,08,04,20,18.30
2013,08,08,04,21,18.30
2013,08,08,04,22,18.30
2013,08,08,04,23,18.30
2013,08,08,04,24,18.30
2013,08,08,04,25,18.30
2013,08,08,04,26,18.30
2013,08,08,04,27,18.30
2013,08,08,04,28,18.30
2013,08,08,04,29,18.30
2013,08,08,04,30,18.30
2013,08,08,04,31,18.30
2013,08,08,04,32,18.30
2013,08,08,04,33,18.30
2013,08,08,04,34,18.20
2013,08,08,04,35,18.20
2013,08,08,04,36,18.20
2013,08,08,04,37,18.20
2013,08,08,04,38,18.20
2013,08,08,04,39,18.20
2013,08,08,04,40,18.10
2013,08,08,04,41,18.10
2013,08,08,04,42,18.10
2013,08,08,04,43,18.10
2013,08,08,04,44,18.10
2013,08,08,04,45,18.10
2013,08,08,04,46,18.10
2013,08,08,04,47,18.10
2013,08,08,04,48,18.10
2013,08,08,04,49,18.10
2013,08,08,04,50,18.10
2013,08,08,04,51,18.10
2013,08,08,04,52,18.10
2013,08,08,04,53,18.10
2013,08,08,04,54,18.10
2013,08,08,04,55,18.10
2013,08,08,04,56,18.10
2013,08,08,04,57,18.00
2013,08,08,04,58,18.00
2013,08,08,04,59,18.00
2013,08,08,05,00,18.00
2013,08,08,05,01,18.00
2013,08,08,05,02,18.00
2013,08,08,05,03,18.00
2013,08,08,05,04,18.00
2013,08,08,05,05,17.90
2013,08,08,05,06,17.90
2013,08,08,05,07,17.90
2013,08,08,05,08,17.90
2013,08,08,05,09,17.90
2013,08,08,05,10,17.90
2013,08,08,05,11,17.90
2013,08,08,05,12,17.80
2013,08,08,05,13,17.80
2013,08,08,05,14,17.80
2013,08,08,05,15,17.80
2013,08,08,05,16,17.80
2013,08,08,05,17,17.80
2013,08,08,05,18,17.70
2013,08,08,05,19,17.70
2013,08,08,05,20,17.70
2013,08,08,05,21,17.70
2013,08,08,05,22,17.70
2013,08,08,05,23,17.70
2013,08,08,05,24,17.70
2013,08,08,05,25,17.70
2013,08,08,05,26,17.70
2013,08,08,05,27,17.70
2013,08,08,05,28,17.60
2013,08,08,05,29,17.70
2013,08,08,05,30,17.60
2013,08,08,05,31,17.60
2013,08,08,05,32,17.60
2013,08,08,05,33,17.60
2013,08,08,05,34,17.60
2013,08,08,05,35,17.60
2013,08,08,05,36,17.60
2013,08,08,05,37,17.60
2013,08,08,05,38,17.60
2013,08,08,05,39,17.60
2013,08,08,05,40,17.60
2013,08,08,05,41,17.60
2013,08,08,05,42,17.50
2013,08,08,05,43,17.50
2013,08,08,05,44,17.50
2013,08,08,05,45,17.40
2013,08,08,05,46,17.40
2013,08,08,05,47,17.40
2013,08,08,05,48,17.30
2013,08,08,05,49,17.30
2013,08,08,05,50,17.30
2013,08,08,05,51,17.30
2013,08,08,05,52,17.30
2013,08,08,05,53,17.20
2013,08,08,05,54,17.20
2013,08,08,05,55,17.20
2013,08,08,05,56,17.20
2013,08,08,05,57,17.20
2013,08,08,05,58,17.20
2013,08,08,05,59,17.10
2013,08,08,06,00,17.10
2013,08,08,06,01,17.10
2013,08,08,06,02,17.10
2013,08,08,06,03,17.10
2013,08,08,06,04,17.10
2013,08,08,06,05,17.10
2013,08,08,06,06,17.10
2013,08,08,06,07,17.10
2013,08,08,06,08,17.10
2013,08,08,06,09,17.10
2013,08,08,06,10,17.10
2013,08,08,06,11,17.10
2013,08,08,06,12,17.00
2013,08,08,06,13,17.00
2013,08,08,06,14,17.00
2013,08,08,06,15,17.00
2013,08,08,06,16,16.90
2013,08,08,06,17,16.90
2013,08,08,06,18,16.90
2013,08,08,06,19,16.80
2013,08,08,06,20,16.80
2013,08,08,06,21,16.80
2013,08,08,06,22,16.80
2013,08,08,06,23,16.80
2013,08,08,06,24,16.80
2013,08,08,06,25,16.80
2013,08,08,06,26,16.80
2013,08,08,06,27,16.80
2013,08,08,06,28,16.80
2013,08,08,06,29,16.80
2013,08,08,06,30,16.80
2013,08,08,06,31,16.80
2013,08,08,06,32,16.90
2013,08,08,06,33,16.90
2013,08,08,06,34,16.90
2013,08,08,06,35,16.90
2013,08,08,06,36,17.00
2013,08,08,06,37,17.00
2013,08,08,06,38,17.00
2013,08,08,06,39,17.00
2013,08,08,06,40,17.10
2013,08,08,06,41,17.10
2013,08,08,06,42,17.10
2013,08,08,06,43,17.10
2013,08,08,06,44,17.20
2013,08,08,06,45,17.20
2013,08,08,06,46,17.30
2013,08,08,06,47,17.30
2013,08,08,06,48,17.40
2013,08,08,06,49,17.50
2013,08,08,06,50,17.50
2013,08,08,06,51,17.60
2013,08,08,06,52,17.60
2013,08,08,06,53,17.70
2013,08,08,06,54,17.70
2013,08,08,06,55,17.80
2013,08,08,06,56,17.80
2013,08,08,06,57,17.80
2013,08,08,06,58,17.80
2013,08,08,06,59,17.80
2013,08,08,07,00,17.80
2013,08,08,07,01,17.80
2013,08,08,07,02,17.80
2013,08,08,07,03,17.80
2013,08,08,07,04,17.90
2013,08,08,07,05,17.90
2013,08,08,07,06,17.90
2013,08,08,07,07,18.00
2013,08,08,07,08,18.00
2013,08,08,07,09,18.00
2013,08,08,07,10,18.10
2013,08,08,07,11,18.10
2013,08,08,07,12,18.10
2013,08,08,07,13,18.20
2013,08,08,07,14,18.20
2013,08,08,07,15,18.20
2013,08,08,07,16,18.30
2013,08,08,07,17,18.30
2013,08,08,07,18,18.30
2013,08,08,07,19,18.40
2013,08,08,07,20,18.40
2013,08,08,07,21,18.40
2013,08,08,07,22,18.50
2013,08,08,07,23,18.50
2013,08,08,07,24,18.50
2013,08,08,07,25,18.60
2013,08,08,07,26,18.60
2013,08,08,07,27,18.60
2013,08,08,07,28,18.70
2013,08,08,07,29,18.70
2013,08,08,07,30,18.70
2013,08,08,07,31,18.70
2013,08,08,07,32,18.80
2013,08,08,07,33,18.80
2013,08,08,07,34,18.80
2013,08,08,07,35,18.90
2013,08,08,07,36,18.90
2013,08,08,07,37,19.00
2013,08,08,07,38,19.00
2013,08,08,07,39,19.10
2013,08,08,07,40,19.10
2013,08,08,07,41,19.10
2013,08,08,07,42,19.10
2013,08,08,07,43,19.10
2013,08,08,07,44,19.10
2013,08,08,07,45,19.10
2013,08,08,07,46,19.10
2013,08,08,07,47,19.10
2013,08,08,07,48,19.10
2013,08,08,07,49,19.10
2013,08,08,07,50,19.20
2013,08,08,07,51,19.20
2013,08,08,07,52,19.20
2013,08,08,07,53,19.30
2013,08,08,07,54,19.30
2013,08,08,07,55,19.30
2013,08,08,07,56,19.40
2013,08,08,07,57,19.40
2013,08,08,07,58,19.40
2013,08,08,07,59,19.50
2013,08,08,08,00,19.50
2013,08,08,08,01,19.60
2013,08,08,08,02,19.60
2013,08,08,08,03,19.60
2013,08,08,08,04,19.60
2013,08,08,08,05,19.50
2013,08,08,08,06,19.50
2013,08,08,08,07,19.50
2013,08,08,08,08,19.50
2013,08,08,08,09,19.50
2013,08,08,08,10,19.50
2013,08,08,08,11,19.50
2013,08,08,08,12,19.50
2013,08,08,08,13,19.50
2013,08,08,08,14,19.50
2013,08,08,08,15,19.50
2013,08,08,08,16,19.60
2013,08,08,08,17,19.60
2013,08,08,08,18,19.60
2013,08,08,08,19,19.50
2013,08,08,08,20,19.50
2013,08,08,08,21,19.50
2013,08,08,08,22,19.50
2013,08,08,08,23,19.50
2013,08,08,08,24,19.50
2013,08,08,08,25,19.60
2013,08,08,08,26,19.60
2013,08,08,08,27,19.60
2013,08,08,08,28,19.60
2013,08,08,08,29,19.60
2013,08,08,08,30,19.60
2013,08,08,08,31,19.60
2013,08,08,08,32,19.60
2013,08,08,08,33,19.70
2013,08,08,08,34,19.70
2013,08,08,08,35,19.70
2013,08,08,08,36,19.70
2013,08,08,08,37,19.70
2013,08,08,08,38,19.70
2013,08,08,08,39,19.80
2013,08,08,08,40,19.80
2013,08,08,08,41,19.80
2013,08,08,08,42,19.80
2013,08,08,08,43,19.80
2013,08,08,08,44,19.90
2013,08,08,08,45,19.90
2013,08,08,08,46,20.00
2013,08,08,08,47,20.00
2013,08,08,08,48,20.10
2013,08,08,08,49,20.10
2013,08,08,08,50,20.10
2013,08,08,08,51,20.20
2013,08,08,08,52,20.20
2013,08,08,08,53,20.20
2013,08,08,08,54,20.20
2013,08,08,08,55,20.20
2013,08,08,08,56,20.20
2013,08,08,08,57,20.20
2013,08,08,08,58,20.20
2013,08,08,08,59,20.20
2013,08,08,09,00,20.30
2013,08,08,09,01,20.30
2013,08,08,09,02,20.40
2013,08,08,09,03,20.40
2013,08,08,09,04,20.40
2013,08,08,09,05,20.50
2013,08,08,09,06,20.50
2013,08,08,09,07,20.50
2013,08,08,09,08,20.50
2013,08,08,09,09,20.50
2013,08,08,09,10,20.40
2013,08,08,09,11,20.40
2013,08,08,09,12,20.40
2013,08,08,09,13,20.40
2013,08,08,09,14,20.40
2013,08,08,09,15,20.40
2013,08,08,09,16,20.40
2013,08,08,09,17,20.40
2013,08,08,09,18,20.50
2013,08,08,09,19,20.50
2013,08,08,09,20,20.50
2013,08,08,09,21,20.60
2013,08,08,09,22,20.60
2013,08,08,09,23,20.70
2013,08,08,09,24,20.70
2013,08,08,09,25,20.70
2013,08,08,09,26,20.70
2013,08,08,09,27,20.70
2013,08,08,09,28,20.70
2013,08,08,09,29,20.80
2013,08,08,09,30,20.80
2013,08,08,09,31,20.90
2013,08,08,09,32,21.00
2013,08,08,09,33,21.00
2013,08,08,09,34,21.10
2013,08,08,09,35,21.20
2013,08,08,09,36,21.10
2013,08,08,09,37,21.10
2013,08,08,09,38,21.10
2013,08,08,09,39,21.10
2013,08,08,09,40,21.10
2013,08,08,09,41,21.10
2013,08,08,09,42,21.10
2013,08,08,09,43,21.00
2013,08,08,09,44,21.00
2013,08,08,09,45,20.90
2013,08,08,09,46,21.00
2013,08,08,09,47,21.00
2013,08,08,09,48,21.00
2013,08,08,09,49,21.00
2013,08,08,09,50,21.10
2013,08,08,09,51,21.10
2013,08,08,09,52,21.20
2013,08,08,09,53,21.20
2013,08,08,09,54,21.20
2013,08,08,09,55,21.20
2013,08,08,09,56,21.20
2013,08,08,09,57,21.10
2013,08,08,09,58,21.00
2013,08,08,09,59,21.00
2013,08,08,10,00,21.00
2013,08,08,10,01,20.90
2013,08,08,10,02,20.90
2013,08,08,10,03,20.90
2013,08,08,10,04,20.90
2013,08,08,10,05,20.90
2013,08,08,10,06,20.80
2013,08,08,10,07,20.80
2013,08,08,10,08,20.80
2013,08,08,10,09,20.80
2013,08,08,10,10,20.80
2013,08,08,10,11,20.80
2013,08,08,10,12,20.90
2013,08,08,10,13,20.80
2013,08,08,10,14,20.80
2013,08,08,10,15,20.80
2013,08,08,10,16,20.80
2013,08,08,10,17,20.90
2013,08,08,10,18,20.90
2013,08,08,10,19,20.90
2013,08,08,10,20,21.00
2013,08,08,10,21,21.00
2013,08,08,10,22,21.00
2013,08,08,10,23,20.90
2013,08,08,10,24,20.90
2013,08,08,10,25,20.80
2013,08,08,10,26,20.80
2013,08,08,10,27,20.80
2013,08,08,10,28,20.80
2013,08,08,10,29,20.80
2013,08,08,10,30,20.90
2013,08,08,10,31,20.80
2013,08,08,10,32,20.80
2013,08,08,10,33,20.90
2013,08,08,10,34,20.90
2013,08,08,10,35,20.90
2013,08,08,10,36,20.90
2013,08,08,10,37,21.00
2013,08,08,10,38,21.10
2013,08,08,10,39,21.10
2013,08,08,10,40,21.20
2013,08,08,10,41,21.20
2013,08,08,10,42,21.20
2013,08,08,10,43,21.30
2013,08,08,10,44,21.20
2013,08,08,10,45,21.20
2013,08,08,10,46,21.20
2013,08,08,10,47,21.20
2013,08,08,10,48,21.20
2013,08,08,10,49,21.20
2013,08,08,10,50,21.20
2013,08,08,10,51,21.30
2013,08,08,10,52,21.40
2013,08,08,10,53,21.50
2013,08,08,10,54,21.60
2013,08,08,10,55,21.60
2013,08,08,10,56,21.70
2013,08,08,10,57,21.70
2013,08,08,10,58,21.80
2013,08,08,10,59,21.80
2013,08,08,11,00,21.80
2013,08,08,11,01,21.80
2013,08,08,11,02,21.80
2013,08,08,11,03,21.80
2013,08,08,11,04,21.80
2013,08,08,11,05,21.80
2013,08,08,11,06,21.90
2013,08,08,11,07,21.90
2013,08,08,11,08,22.00
2013,08,08,11,09,22.00
2013,08,08,11,10,22.10
2013,08,08,11,11,22.20
2013,08,08,11,12,22.20
2013,08,08,11,13,22.20
2013,08,08,11,14,22.30
2013,08,08,11,15,22.30
2013,08,08,11,16,22.30
2013,08,08,11,17,22.30
2013,08,08,11,18,22.30
2013,08,08,11,19,22.30
2013,08,08,11,20,22.30
2013,08,08,11,21,22.30
2013,08,08,11,22,22.40
2013,08,08,11,23,22.50
2013,08,08,11,24,22.60
2013,08,08,11,25,22.60
2013,08,08,11,26,22.70
2013,08,08,11,27,22.80
2013,08,08,11,28,22.80
2013,08,08,11,29,22.90
2013,08,08,11,30,22.90
2013,08,08,11,31,23.00
2013,08,08,11,32,23.00
2013,08,08,11,33,23.20
2013,08,08,11,34,23.30
2013,08,08,11,35,23.30
2013,08,08,11,36,23.30
2013,08,08,11,37,23.30
2013,08,08,11,38,23.30
2013,08,08,11,39,23.20
2013,08,08,11,40,23.20
2013,08,08,11,41,23.10
2013,08,08,11,42,23.00
2013,08,08,11,43,22.90
2013,08,08,11,44,22.80
2013,08,08,11,45,22.80
2013,08,08,11,46,22.80
2013,08,08,11,47,22.80
2013,08,08,11,48,22.80
2013,08,08,11,49,22.90
2013,08,08,11,50,23.00
2013,08,08,11,51,23.10
2013,08,08,11,52,23.20
2013,08,08,11,53,23.30
2013,08,08,11,54,23.30
2013,08,08,11,55,23.40
2013,08,08,11,56,23.40
2013,08,08,11,57,23.30
2013,08,08,11,58,23.30
2013,08,08,11,59,23.30
2013,08,08,12,00,23.40
2013,08,08,12,01,23.40
2013,08,08,12,02,23.50
2013,08,08,12,03,23.50
2013,08,08,12,04,23.60
2013,08,08,12,05,23.60
2013,08,08,12,06,23.50
2013,08,08,12,07,23.50
2013,08,08,12,08,23.40
2013,08,08,12,09,23.40
2013,08,08,12,10,23.40
2013,08,08,12,11,23.50
2013,08,08,12,12,23.60
2013,08,08,12,13,23.60
2013,08,08,12,14,23.50
2013,08,08,12,15,23.50
2013,08,08,12,16,23.50
2013,08,08,12,17,23.50
2013,08,08,12,18,23.60
2013,08,08,12,19,23.70
2013,08,08,12,20,23.80
2013,08,08,12,21,23.90
2013,08,08,12,22,23.90
2013,08,08,12,23,23.90
2013,08,08,12,24,23.90
2013,08,08,12,25,24.00
2013,08,08,12,26,24.10
2013,08,08,12,27,24.10
2013,08,08,12,28,24.10
2013,08,08,12,29,24.20
2013,08,08,12,30,24.20
2013,08,08,12,31,24.30
2013,08,08,12,32,24.30
2013,08,08,12,33,24.30
2013,08,08,12,34,24.30
2013,08,08,12,35,24.30
2013,08,08,12,36,24.30
2013,08,08,12,37,24.30
2013,08,08,12,38,24.30
2013,08,08,12,39,24.40
2013,08,08,12,40,24.40
2013,08,08,12,41,24.40
2013,08,08,12,42,24.50
2013,08,08,12,43,24.50
2013,08,08,12,44,24.60
2013,08,08,12,45,24.70
2013,08,08,12,46,24.70
2013,08,08,12,47,24.60
2013,08,08,12,48,24.60
2013,08,08,12,49,24.60
2013,08,08,12,50,24.60
2013,08,08,12,51,24.70
2013,08,08,12,52,24.80
2013,08,08,12,53,24.80
2013,08,08,12,54,24.80
2013,08,08,12,55,24.80
2013,08,08,12,56,24.70
2013,08,08,12,57,24.70
2013,08,08,12,58,24.60
2013,08,08,12,59,24.50
2013,08,08,13,00,24.50
2013,08,08,13,01,24.50
2013,08,08,13,02,24.50
2013,08,08,13,03,24.60
2013,08,08,13,04,24.60
2013,08,08,13,05,24.70
2013,08,08,13,06,24.70
2013,08,08,13,07,24.70
2013,08,08,13,08,24.70
2013,08,08,13,09,24.70
2013,08,08,13,10,24.70
2013,08,08,13,11,24.70
2013,08,08,13,12,24.70
2013,08,08,13,13,24.70
2013,08,08,13,14,24.70
2013,08,08,13,15,24.70
2013,08,08,13,16,24.70
2013,08,08,13,17,24.70
2013,08,08,13,18,24.70
2013,08,08,13,19,24.70
2013,08,08,13,20,24.70
2013,08,08,13,21,24.70
2013,08,08,13,22,24.80
2013,08,08,13,23,24.90
2013,08,08,13,24,25.00
2013,08,08,13,25,25.00
2013,08,08,13,26,25.10
2013,08,08,13,27,25.10
2013,08,08,13,28,25.00
2013,08,08,13,29,25.00
2013,08,08,13,30,24.90
2013,08,08,13,31,24.80
2013,08,08,13,32,24.80
2013,08,08,13,33,24.70
2013,08,08,13,34,24.70
2013,08,08,13,35,24.70
2013,08,08,13,36,24.70
2013,08,08,13,37,24.80
2013,08,08,13,38,24.80
2013,08,08,13,39,24.80
2013,08,08,13,40,24.70
2013,08,08,13,41,24.70
2013,08,08,13,42,24.70
2013,08,08,13,43,24.70
2013,08,08,13,44,24.70
2013,08,08,13,45,24.70
2013,08,08,13,46,24.70
2013,08,08,13,47,24.70
2013,08,08,13,48,24.70
2013,08,08,13,49,24.80
2013,08,08,13,50,24.80
2013,08,08,13,51,24.90
2013,08,08,13,52,24.90
2013,08,08,13,53,25.00
2013,08,08,13,54,25.10
2013,08,08,13,55,25.20
2013,08,08,13,56,25.20
2013,08,08,13,57,25.40
2013,08,08,13,58,25.50
2013,08,08,13,59,25.60
2013,08,08,14,00,25.60
2013,08,08,14,01,25.70
2013,08,08,14,02,25.70
2013,08,08,14,03,25.70
2013,08,08,14,04,25.60
2013,08,08,14,05,25.60
2013,08,08,14,06,25.60
2013,08,08,14,07,25.50
2013,08,08,14,08,25.50
2013,08,08,14,09,25.50
2013,08,08,14,10,25.50
2013,08,08,14,11,25.40
2013,08,08,14,12,25.40
2013,08,08,14,13,25.40
2013,08,08,14,14,25.30
2013,08,08,14,15,25.30
2013,08,08,14,16,25.40
2013,08,08,14,17,25.40
2013,08,08,14,18,25.40
2013,08,08,14,19,25.40
2013,08,08,14,20,25.30
2013,08,08,14,21,25.30
2013,08,08,14,22,25.40
2013,08,08,14,23,25.40
2013,08,08,14,24,25.50
2013,08,08,14,25,25.60
2013,08,08,14,26,25.60
2013,08,08,14,27,25.70
2013,08,08,14,28,25.60
2013,08,08,14,29,25.60
2013,08,08,14,30,25.60
2013,08,08,14,31,25.60
2013,08,08,14,32,25.60
2013,08,08,14,33,25.60
2013,08,08,14,34,25.70
2013,08,08,14,35,25.70
2013,08,08,14,36,25.70
2013,08,08,14,37,25.70
2013,08,08,14,38,25.70
2013,08,08,14,39,25.80
2013,08,08,14,40,25.80
2013,08,08,14,41,25.80
2013,08,08,14,42,25.80
2013,08,08,14,43,25.80
2013,08,08,14,44,25.90
2013,08,08,14,45,25.90
2013,08,08,14,46,25.90
2013,08,08,14,47,25.80
2013,08,08,14,48,25.90
2013,08,08,14,49,26.00
2013,08,08,14,50,26.00
2013,08,08,14,51,26.10
2013,08,08,14,52,26.10
2013,08,08,14,53,26.00
2013,08,08,14,54,26.00
2013,08,08,14,55,26.00
2013,08,08,14,56,26.10
2013,08,08,14,57,26.10
2013,08,08,14,58,26.10
2013,08,08,14,59,26.00
2013,08,08,15,00,26.00
2013,08,08,15,01,25.90
2013,08,08,15,02,25.90
2013,08,08,15,03,25.80
2013,08,08,15,04,25.80
2013,08,08,15,05,25.90
2013,08,08,15,06,25.90
2013,08,08,15,07,25.90
2013,08,08,15,08,25.90
2013,08,08,15,09,25.90
2013,08,08,15,10,26.00
2013,08,08,15,11,26.00
2013,08,08,15,12,26.10
2013,08,08,15,13,26.20
2013,08,08,15,14,26.20
2013,08,08,15,15,26.30
2013,08,08,15,16,26.30
2013,08,08,15,17,26.30
2013,08,08,15,18,26.40
2013,08,08,15,19,26.40
2013,08,08,15,20,26.40
2013,08,08,15,21,26.40
2013,08,08,15,22,26.40
2013,08,08,15,23,26.40
2013,08,08,15,24,26.40
2013,08,08,15,25,26.50
2013,08,08,15,26,26.60
2013,08,08,15,27,26.70
2013,08,08,15,28,26.70
2013,08,08,15,29,26.80
2013,08,08,15,30,26.80
2013,08,08,15,31,26.80
2013,08,08,15,32,26.80
2013,08,08,15,33,26.90
2013,08,08,15,34,27.00
2013,08,08,15,35,27.00
2013,08,08,15,36,27.00
2013,08,08,15,37,27.10
2013,08,08,15,38,27.10
2013,08,08,15,39,27.20
2013,08,08,15,40,27.20
2013,08,08,15,41,27.20
2013,08,08,15,42,27.20
2013,08,08,15,43,27.20
2013,08,08,15,44,27.10
2013,08,08,15,45,27.10
2013,08,08,15,46,27.10
2013,08,08,15,47,27.20
2013,08,08,15,48,27.20
2013,08,08,15,49,27.30
2013,08,08,15,50,27.30
2013,08,08,15,51,27.30
2013,08,08,15,52,27.20
2013,08,08,15,53,27.20
2013,08,08,15,54,27.20
2013,08,08,15,55,27.20
2013,08,08,15,56,27.10
2013,08,08,15,57,27.10
2013,08,08,15,58,27.10
2013,08,08,15,59,27.10
2013,08,08,16,00,27.10
2013,08,08,16,01,27.00
2013,08,08,16,02,27.00
2013,08,08,16,03,26.90
2013,08,08,16,04,26.90
2013,08,08,16,05,27.00
2013,08,08,16,06,27.10
2013,08,08,16,07,27.10
2013,08,08,16,08,27.20
2013,08,08,16,09,27.30
2013,08,08,16,10,27.30
2013,08,08,16,11,27.40
2013,08,08,16,12,27.40
2013,08,08,16,13,27.50
2013,08,08,16,14,27.60
2013,08,08,16,15,27.70
2013,08,08,16,16,27.70
2013,08,08,16,17,27.70
2013,08,08,16,18,27.70
2013,08,08,16,19,27.70
2013,08,08,16,20,27.70
2013,08,08,16,21,27.60
2013,08,08,16,22,27.60
2013,08,08,16,23,27.50
2013,08,08,16,24,27.50
2013,08,08,16,25,27.50
2013,08,08,16,26,27.60
2013,08,08,16,27,27.60
2013,08,08,16,28,27.70
2013,08,08,16,29,27.80
2013,08,08,16,30,27.80
2013,08,08,16,31,27.90
2013,08,08,16,32,27.90
2013,08,08,16,33,27.90
2013,08,08,16,34,27.90
2013,08,08,16,35,27.90
2013,08,08,16,36,27.90
2013,08,08,16,37,27.90
2013,08,08,16,38,27.80
2013,08,08,16,39,27.80
2013,08,08,16,40,27.80
2013,08,08,16,41,27.80
2013,08,08,16,42,27.80
2013,08,08,16,43,27.70
2013,08,08,16,44,27.70
2013,08,08,16,45,27.70
2013,08,08,16,46,27.70
2013,08,08,16,47,27.70
2013,08,08,16,48,27.70
2013,08,08,16,49,27.60
2013,08,08,16,50,27.60
2013,08,08,16,51,27.60
2013,08,08,16,52,27.60
2013,08,08,16,53,27.60
2013,08,08,16,54,27.60
2013,08,08,16,55,27.60
2013,08,08,16,56,27.70
2013,08,08,16,57,27.70
2013,08,08,16,58,27.80
2013,08,08,16,59,27.90
2013,08,08,17,00,28.00
2013,08,08,17,01,28.00
2013,08,08,17,02,28.10
2013,08,08,17,03,28.20
2013,08,08,17,04,28.20
2013,08,08,17,05,28.20
2013,08,08,17,06,28.30
2013,08,08,17,07,28.30
2013,08,08,17,08,28.30
2013,08,08,17,09,28.30
2013,08,08,17,10,28.40
2013,08,08,17,11,28.40
2013,08,08,17,12,28.50
2013,08,08,17,13,28.50
2013,08,08,17,14,28.40
2013,08,08,17,15,28.40
2013,08,08,17,16,28.50
2013,08,08,17,17,28.50
2013,08,08,17,18,28.50
2013,08,08,17,19,28.50